Location: Buchberg
(46.9333°N, 15.8500°E)
Time: 08:46:10
(UTC+00:00)

IRS-P3 - Pass Details

Date: 14 July 2020
Orbit: 814 x 818 km, 98.8° (Epoch: 07 August)

Event Time Altitude Azimuth Distance (km) Brightness Sun altitude
Rises 01:49:21 0° 12° (NNE) 3,353 8.6 -11.8°
Reaches altitude 10° 01:51:42 10° 11° (N) 2,418 7.6 -11.6°
Maximum altitude 01:57:02 74° 288° (WNW) 853 4.2 -11.0°
Enters shadow 02:01:59 12° 204° (SSW) 2,261 5.8 -10.4°
